Regional Weather Roundup
Issued by NWS Albany, NY

Home | Current Version | Previous Version | Graphics & Text | Print | Product List | Glossary Off
Versions: 1 2 3 4 5 6 7 8 9 10 11 12 13 14 15 16 17 18 19 20 21 22 23 24 25 26 27 28 29 30 31 32 33 34 35 36 37 38 39 40 41 42 43 44 45 46 47 48 49 50

000
ASUS41 KALY 221810
RWRALY

NEW YORK STATE HOURLY WEATHER ROUNDUP
NATIONAL WEATHER SERVICE ALBANY NY
100 PM EST SUN JAN 22 2017

NOTE: "FAIR" INDICATES FEW OR NO CLOUDS BELOW 12,000 FEET WITH NO
SIGNIFICANT WEATHER AND/OR NO OBSTRUCTIONS TO VISIBILITY.

NYZ032-033-038>043-046>054-057>066-NYZ062>081-082-084-221900-
EAST


CITY           SKY/WX    TMP DP  RH WIND       PRES   REMARKS
ALBANY         CLOUDY    42  39  89 N6        29.77F FOG
GLENS FALLS    CLOUDY    40  36  86 NE5       29.79S
POUGHKEEPSIE   CLOUDY    47  43  86 N3        29.70F
NEWBURGH       CLOUDY    46  46 100 SE7       29.71F
MONTGOMERY     CLOUDY    48  44  86 CALM      29.69F
WHITE PLAINS   PTSUNNY   46  44  93 E8        29.70F FOG
ISLIP          PTSUNNY   54  47  77 N7        29.69F
NEW YORK CITY  CLOUDY    44  41  89 NE16      29.70F FOG
CENTRAL PARK   CLOUDY    45  42  89 NE8       29.73F
$$

NYZ005>009-017-018-044>046-055-056-221900-
CENTRAL


CITY           SKY/WX    TMP DP  RH WIND       PRES   REMARKS
FULTON         CLOUDY    49  43  80 NE3       29.71F
SYRACUSE       PTSUNNY   48  43  82 VRB5      29.71F
ROME           PTSUNNY   50  44  80 E8        29.73F
ELMIRA         MOSUNNY   48  44  86 CALM      29.65F
BINGHAMTON     MOSUNNY   50  46  86 VRB3      29.66F
MONTICELLO     MOSUNNY   55  50  82 S6        29.69F
$$

NYZ026>034-041>043-087-221900-
NORTH


CITY           SKY/WX    TMP DP  RH WIND       PRES   REMARKS
WATERTOWN      CLOUDY    40  37  89 NE16      29.77S WCI  31
FORT DRUM      NOT AVBL
OGDENSBURG     PTSUNNY   38  32  79 NE10      29.82F WCI  31
MASSENA        CLOUDY    36  30  79 NE15      29.88R WCI  27
SARANAC LAKE   CLOUDY    33  31  92 NE9       29.75F WCI  25
PLATTSBURGH    CLOUDY    36  29  75 N9        29.86R WCI  29
$$

NYZ001>004-010>016-019>021-085-221900-
WEST


CITY           SKY/WX    TMP DP  RH WIND       PRES   REMARKS
NIAGARA FALLS  CLOUDY    44  41  89 E8        29.67F FOG
BUFFALO        LGT RAIN  44  42  93 NE8       29.67F FOG
DUNKIRK        CLOUDY    44  43  96 N3        29.65F
JAMESTOWN        N/A     52  46  82 NE3       29.63F
WELLSVILLE     MOSUNNY   57  48  72 NE5       29.65F
ROCHESTER      LGT RAIN  44  43  96 NE10      29.70F VSB 1/4
PENN YAN       CLOUDY    50  43  77 VRB3      29.68F
$$

             KEY
       WCI = WIND CHILL INDEX
       VSB = VISIBILITY
       HX  = HEAT INDEX
$$



USA.gov is the U.S. government's official web portal to all federal, state and local government web resources and services.